SCP
0 0 0 0 0 0 0 0 0 0 0 0 0 0 0 0 0 0 0 0 0 0 0 0 0 0 0 0 0 0 0 0 0 0 0 0 0 0 0 0 0 0 0
0 0 0 0 0 0 0 0 0 0 0 0 0 0 0 0 0 0 0 0 0 0 0 0 0 0 0 0 0 0 0 0 0 0 0 0 0 0 0 0 0 0 0
0 0 0 0 0 0 0 0 0 0 0 0 0 0 0 0 0 0 0 0 0 0 0 0 0 0 0 0 0 0 0 0 0 0 0 0 0 0 0 0 0 0 0
0 0 0 0 0 0 0 0 0 0 0 0 0 0 0 0 0 0 0 0 0 0 0 0 0 0 0 0 0 0 0 0 0 0 0 0 0 0 0 0 0 0 0
0 0 0 0 0 0 0 0 0 0 0 0 0 0 0 0 0 0 0 0 0 0 0 0 0 0 0 0 0 0 0 0 0 0 0 0 0 0 0 0 0 0 0
0 0 0 0 0 0 0 0 0 0 0 0 0 0 0 0 0 0 0 0 0 0 0 0 0 0 0 0 0 0 0 0 0 0 0 0 0 0 0 0 0 0 0
0 0 0 0 0 0 0 0 0 0 0 0 0 0 0 0 0 0 0 0 0 0 0 0 0 0 0 0 0 0 0 0 0 0 0 0 0 0 0 0 0 0 0
0 0 0 0 0 0 0 0 0 0 0 0 0 0 0 0 0 0 0 0 0 0 0 0 0 0 0 0 0 0 0 0 0 0 0 0 0 0 0 0 0 0 0
0 0 0 0 0 0 0 0 0 0 0 0 0 0 0 0 0 0 0 0 0 0 0 0 0 0 0 0 0 0 0 0 0 0 0 0 0 0 0 0 0 0 0
0 0 0 0 0 0 0 0 0 0 0 0 0 0 0 0 0 0 0 0 0 0 0 0 0 0 0 0 0 0 0 0 0 0 0 0 0 0 0 0 0 0 0
0 0 0 0 0 0 0 0 0 0 0 0 0 0 0 0 0 0 0 0 0 0 0 0 0 0 0 0 0 0 0 0 0 0 0 0 0 0 0 0 0 0 0
0 0 0 0 0 0 0 0 0 0 0 0 0 0 0 0 0 0 0 0 0 0 0 0 0 0 0 0 0 0 0 0 0 0 0 0 0 0 0 0 0 0 0
0 0 0 0 0 0 0 0 0 0 0 0 0 0 0 0 0 0 0 0 0 0 0 0 0 0 0 0 0 0 0 0 0 0 0 0 0 0 0 0 0 0 0
0 0 0 0 0 0 0 0 0 0 0 0 0 0 0 0 0 0 0 0 0 0 0 0 0 0 0 0 0 0 0 0 0 0 0 0 0 0 0 0 0 0 0
0 0 0 0 0 0 0 0 0 0 0 0 0 0 0 0 0 0 0 0 0 0 0 0 0 0 0 0 0 0 0 0 0 0 0 0 0 0 0 0 0 0 0
0 0 0 0 0 0 0 0 0 0 0 0 0 0 0 0 0 0 0 0 0 0 0 0 0 0 0 0 0 0 0 0 0 0 0 0 0 0 0 0 0 0 0
0 0 0 0 0 0 0 0 0 0 0 0 0 0 0 0 0 0 0 0 0 0 0 0 0 0 0 0 0 0 0 0 0 0 0 0 0 0 0 0 0 0 0
0 0 0 0 0 0 0 0 0 0 0 0 0 0 0 0 0 0 0 0 0 0 0 0 0 0 0 0 0 0 0 0 0 0 0 0 0 0 0 0 0 0 0
0 0 0 0 0 0 0 0 0 0 0 0 0 0 0 0 0 0 0 0 0 0 0 0 0 0 0 0 0 0 0 0 0 0 0 0 0 0 0 0 0 0 0
0 0 0 0 0 0 0 0 0 0 0 0 0 0 0 0 0 0 0 0 0 0 0 0 0 0 0 0 0 0 0 0 0 0 0 0 0 0 0 0 0 0 0
0 0 0 0 0 0 0 0 0 0 0 0 0 0 0 0 0 0 0 0 0 0 0 0 0 0 0 0 0 0 0 0 0 0 0 0 0 0 0 0 0 0 0
0 0 0 0 0 0 0 0 0 0 0 0 0 0 0 0 0 0 0 0 0 0 0 0 0 0 0 0 0 0 0 0 0 0 0 0 0 0 0 0 0 0 0
0 0 0 0 0 0 0 0 0 0 0 0 0 0 0 0 0 0 0 0 0 0 0 0 0 0 0 0 0 0 0 0 0 0 0 0 0 0 0 0 0 0 0
0 0 0 0 0 0 0 0 0 0 0 0 0 0 0 0 0 0 0 0 0 0 0 0 0 0 0 0 0 0 0 0 0 0 0 0 0 0 0 0 0 0 0
0 0 0 0 0 0 0 0 0 0 0 0 0 0 0 0 0 0 0 0 0 0 0 0 0 0 0 0 0 0 0 0 0 0 0 0 0 0 0 0 0 0 0
0 0 0 0 0 0 0 0 0 0 0 0 0 0 0 0 0 0 0 0 0 0 0 0 0 0 0 0 0 0 0 0 0 0 0 0 0 0 0 0 0 0 0
Wind_Speed_500mb
68 76 80 91 96 96 94 89 83 77 71 68 69 69 68 64 59 55 51 48 47 45 43 43 42 42 41 40 42 42 41 42 48 52 46 34 33 37 38 37 35 30 31
59 65 75 79 80 83 81 78 77 75 68 65 66 67 65 62 58 54 51 49 46 44 42 43 43 43 43 42 42 45 44 43 46 54 52 50 54 51 51 52 41 33 31
46 52 59 67 70 74 76 77 75 70 66 64 62 65 64 61 57 52 49 47 45 43 43 45 44 46 47 48 47 47 46 46 47 52 55 51 48 44 45 46 35 39 31
33 40 47 53 57 63 70 68 65 64 59 59 60 61 60 58 54 51 49 47 45 44 44 45 46 47 46 45 44 44 44 44 46 49 51 49 45 41 40 40 32 33 33
22 31 37 43 52 62 67 69 66 62 60 60 60 61 58 56 54 50 48 46 44 43 44 43 42 41 40 42 41 41 40 43 45 47 47 46 44 41 38 35 28 29 29
19 28 38 46 52 56 57 56 56 57 57 56 55 54 54 54 50 49 47 45 44 44 42 40 40 40 39 38 39 40 41 43 46 47 47 47 44 37 31 26 26 26 23
25 34 40 43 46 48 48 49 50 50 49 48 48 49 48 46 45 44 44 43 43 41 40 40 39 37 36 37 37 38 39 39 40 41 48 49 43 23 21 25 27 31 32
25 28 33 36 37 38 40 41 42 43 44 43 42 42 40 40 43 42 41 41 40 38 37 36 36 34 34 36 37 41 43 45 45 46 46 42 36 33 35 34 37 40 41
20 23 25 28 30 31 31 34 38 39 39 40 39 38 39 37 38 39 39 40 39 39 39 38 36 35 34 35 37 39 40 44 46 52 56 57 48 40 40 42 47 44 46
17 22 24 28 31 33 35 36 36 34 33 32 33 34 34 33 34 35 37 40 41 40 39 37 36 35 34 35 38 39 42 40 38 41 48 50 52 45 40 43 44 47 44
14 15 17 20 23 27 29 31 29 30 31 31 31 29 29 31 31 32 31 33 34 34 33 32 30 28 29 31 33 37 37 29 29 27 29 33 38 43 46 47 50 52 52
10 11 14 17 19 20 20 19 20 24 25 23 21 23 27 26 25 28 30 33 31 30 27 26 25 25 26 29 31 33 32 33 36 30 33 34 34 35 36 38 41 48 52
6 9 11 13 14 14 14 15 18 20 19 19 21 21 20 19 21 23 23 24 25 23 23 22 20 20 27 32 34 37 42 43 44 46 42 41 38 36 34 36 37 42 49
6 8 8 6 7 9 11 14 17 18 19 20 22 22 22 21 21 21 20 19 22 21 21 19 18 19 23 25 25 31 37 41 44 44 41 39 37 35 37 39 40 41 47
3 1 5 9 11 13 15 16 18 19 21 21 22 23 23 25 24 21 19 17 19 18 17 16 19 22 22 24 24 23 28 31 36 40 45 48 47 45 45 46 49 52 56
2 1 0 3 7 11 13 17 21 22 22 22 23 22 21 20 18 16 15 14 13 12 10 10 12 14 15 18 19 22 23 24 24 26 28 34 38 39 39 39 41 43 43
5 6 8 9 11 14 17 16 18 19 19 19 20 22 20 18 15 13 12 11 11 13 18 17 20 22 22 23 26 29 27 28 30 29 29 29 30 31 31 33 34 37 39
12 11 11 11 11 12 14 15 16 17 17 18 18 16 15 14 15 13 13 17 23 25 29 31 31 31 34 35 37 39 40 39 39 39 38 38 39 39 39 37 37 38 37
22 21 20 20 19 19 19 20 19 20 20 19 19 20 20 20 20 23 26 31 34 36 37 40 42 45 46 48 49 50 50 50 48 47 46 47 48 49 49 47 47 45 43
24 24 26 26 28 28 28 27 27 28 28 28 28 28 29 31 33 36 40 43 44 45 46 49 49 53 56 57 57 57 57 55 54 54 54 55 55 56 56 55 54 54 52
35 34 36 36 36 37 40 38 38 37 38 39 38 38 42 45 46 46 47 49 51 53 55 59 61 62 63 63 63 62 60 57 56 57 59 59 60 63 61 61 60 59 57
40 41 43 44 44 45 43 43 44 45 46 48 48 47 50 55 56 56 58 59 59 61 62 64 64 63 62 60 57 56 53 50 47 48 51 54 58 61 63 65 64 63 61
45 46 47 48 49 49 50 50 51 53 54 55 56 57 57 60 60 61 61 58 55 51 47 47 45 43 42 41 42 42 42 41 41 44 44 46 49 53 56 60 59 59 59
42 47 49 51 52 54 56 57 58 60 61 62 61 60 58 55 51 48 45 43 42 41 43 44 43 40 40 41 43 45 46 43 41 39 39 38 37 38 43 46 47 49 49
43 43 43 44 44 46 48 50 51 50 50 50 48 46 43 42 42 41 40 41 43 44 44 47 48 48 47 47 47 47 45 43 40 37 35 34 31 30 32 34 35 36 39
51 52 52 51 51 50 50 50 49 48 48 47 46 45 44 44 44 45 45 47 48 47 47 47 47 47 47 46 44 43 42 41 39 36 34 31 29 26 27 27 29 30 31
Wind_Direction_500mb
237 237 237 233 226 229 229 229 226 224 222 220 221 222 223 225 227 230 236 242 246 247 249 251 253 256 258 259 258 256 252 249 250 251 251 255 248 250 260 264 265 265 245
237 235 234 234 235 229 226 225 221 218 216 216 216 218 222 223 226 230 236 242 245 248 251 253 255 257 259 259 260 259 255 254 255 262 262 257 256 255 260 265 266 265 244
234 231 231 230 226 223 221 213 211 211 211 212 215 217 217 220 224 231 236 240 243 248 251 255 257 258 259 261 261 256 254 253 255 259 265 266 266 267 267 268 262 247 241
228 226 226 224 221 217 210 209 204 205 210 213 213 214 216 220 225 231 235 239 243 248 252 255 257 258 258 259 255 253 252 252 253 255 260 265 268 270 270 272 260 246 239
211 211 210 210 205 199 194 194 198 204 207 208 208 209 215 221 226 228 234 239 244 248 251 252 253 256 256 253 250 248 248 251 252 254 258 262 265 270 270 270 255 244 244
174 181 182 180 180 183 187 190 192 195 197 201 207 214 219 223 227 230 232 238 242 244 247 249 249 253 254 251 246 247 247 248 251 254 259 260 265 269 270 251 241 246 252
154 160 166 172 175 179 184 188 193 199 203 207 213 218 223 226 230 233 236 237 240 242 243 245 247 249 250 247 245 243 245 251 254 258 258 260 263 252 242 230 244 252 250
167 175 175 176 181 184 187 192 196 202 207 211 216 221 226 229 232 235 236 240 238 241 243 246 247 248 246 245 245 243 242 241 243 255 266 268 262 237 240 246 251 256 257
175 186 187 188 190 191 196 202 204 204 206 212 218 224 227 227 231 233 236 241 246 247 247 246 246 247 248 246 248 251 252 250 245 246 252 261 262 251 244 248 252 261 268
187 188 187 188 190 193 195 199 205 208 212 215 218 221 224 226 233 237 238 242 243 247 255 253 252 250 246 241 246 254 257 259 262 257 257 257 252 249 250 256 256 262 266
185 195 193 195 197 200 202 201 203 208 208 212 217 220 229 231 234 237 234 239 242 243 246 250 250 246 240 238 239 251 261 271 267 265 257 254 251 251 251 250 253 258 258
178 191 197 198 197 198 200 198 202 209 204 203 211 216 219 218 218 226 225 220 234 240 248 252 248 241 239 233 238 249 261 267 273 267 268 262 260 260 261 259 256 259 262
189 187 190 188 184 185 187 188 196 203 200 199 205 211 213 213 210 212 215 218 221 236 242 239 238 238 234 234 236 241 244 246 251 256 259 261 262 265 260 257 257 256 259
164 179 183 183 187 187 188 193 199 199 194 193 197 195 193 190 192 191 192 197 204 212 226 230 233 236 245 251 247 247 251 251 252 255 257 261 264 263 263 264 264 264 263
31 133 167 181 188 188 188 189 192 193 188 186 187 183 181 178 178 178 179 189 198 212 226 239 241 243 252 258 260 259 258 259 260 260 259 259 259 262 265 267 269 270 268
304 342 123 181 180 184 185 183 184 183 181 174 170 168 169 170 168 164 162 175 185 212 223 236 249 251 251 260 264 264 263 263 264 265 272 266 263 265 269 271 270 265 267
218 210 204 200 189 184 186 181 182 180 174 177 176 176 178 186 190 193 190 206 223 233 258 262 267 266 265 264 267 265 264 263 267 267 269 271 272 270 269 270 268 264 264
227 225 231 228 223 216 205 201 202 201 202 201 201 201 208 211 223 236 249 255 251 251 260 267 269 270 271 270 268 268 268 266 268 268 268 269 268 267 267 267 267 267 266
242 248 241 241 242 241 240 239 236 234 229 227 236 239 241 247 256 264 265 265 267 267 266 269 272 274 274 273 271 271 271 271 271 270 273 273 272 271 271 271 269 268 267
258 252 251 249 249 249 252 254 254 254 252 248 246 250 255 261 265 268 270 270 272 273 271 270 269 269 270 270 269 268 267 268 270 270 268 267 266 266 265 265 265 265 265
262 262 264 265 264 263 261 257 257 258 261 263 262 264 268 270 272 272 273 273 273 273 273 274 272 270 268 267 268 269 270 270 271 272 271 271 269 267 266 264 262 260 260
265 264 264 265 264 266 265 264 263 262 263 264 265 266 268 270 273 273 274 275 275 273 271 269 268 268 267 267 268 268 269 270 270 272 273 273 272 270 267 264 261 259 259
261 258 257 258 260 261 261 261 262 263 264 265 267 268 269 272 274 275 275 274 272 269 266 264 264 263 263 263 263 264 267 272 275 277 280 280 276 272 267 264 261 258 256
272 270 268 266 266 266 266 266 267 267 269 270 271 272 272 272 271 270 269 268 267 266 265 265 266 264 262 261 262 265 268 271 273 279 284 285 283 275 269 267 263 260 257
279 277 275 274 272 271 269 269 270 270 270 270 271 271 270 267 266 265 263 262 261 260 262 265 267 268 267 266 265 266 266 266 270 275 279 281 282 278 272 268 265 260 257
276 276 275 273 272 271 270 270 269 269 268 268 268 267 266 265 264 264 264 265 266 267 267 267 267 267 266 265 263 261 261 261 264 267 267 271 275 277 274 269 264 262 257
Wind_Speed_850mb
68 76 80 91 96 96 94 89 83 77 71 68 69 69 68 64 59 55 51 48 47 45 43 43 42 42 41 40 42 42 41 42 48 52 46 34 33 37 38 37 35 30 31
59 65 75 79 80 83 81 78 77 75 68 65 66 67 65 62 58 54 51 49 46 44 42 43 43 43 43 42 42 45 44 43 46 54 52 50 54 51 51 52 41 33 31
46 52 59 67 70 74 76 77 75 70 66 64 62 65 64 61 57 52 49 47 45 43 43 45 44 46 47 48 47 47 46 46 47 52 55 51 48 44 45 46 35 39 31
33 40 47 53 57 63 70 68 65 64 59 59 60 61 60 58 54 51 49 47 45 44 44 45 46 47 46 45 44 44 44 44 46 49 51 49 45 41 40 40 32 33 33
22 31 37 43 52 62 67 69 66 62 60 60 60 61 58 56 54 50 48 46 44 43 44 43 42 41 40 42 41 41 40 43 45 47 47 46 44 41 38 35 28 29 29
19 28 38 46 52 56 57 56 56 57 57 56 55 54 54 54 50 49 47 45 44 44 42 40 40 40 39 38 39 40 41 43 46 47 47 47 44 37 31 26 26 26 23
25 34 40 43 46 48 48 49 50 50 49 48 48 49 48 46 45 44 44 43 43 41 40 40 39 37 36 37 37 38 39 39 40 41 48 49 43 23 21 25 27 31 32
25 28 33 36 37 38 40 41 42 43 44 43 42 42 40 40 43 42 41 41 40 38 37 36 36 34 34 36 37 41 43 45 45 46 46 42 36 33 35 34 37 40 41
20 23 25 28 30 31 31 34 38 39 39 40 39 38 39 37 38 39 39 40 39 39 39 38 36 35 34 35 37 39 40 44 46 52 56 57 48 40 40 42 47 44 46
17 22 24 28 31 33 35 36 36 34 33 32 33 34 34 33 34 35 37 40 41 40 39 37 36 35 34 35 38 39 42 40 38 41 48 50 52 45 40 43 44 47 44
14 15 17 20 23 27 29 31 29 30 31 31 31 29 29 31 31 32 31 33 34 34 33 32 30 28 29 31 33 37 37 29 29 27 29 33 38 43 46 47 50 52 52
10 11 14 17 19 20 20 19 20 24 25 23 21 23 27 26 25 28 30 33 31 30 27 26 25 25 26 29 31 33 32 33 36 30 33 34 34 35 36 38 41 48 52
6 9 11 13 14 14 14 15 18 20 19 19 21 21 20 19 21 23 23 24 25 23 23 22 20 20 27 32 34 37 42 43 44 46 42 41 38 36 34 36 37 42 49
6 8 8 6 7 9 11 14 17 18 19 20 22 22 22 21 21 21 20 19 22 21 21 19 18 19 23 25 25 31 37 41 44 44 41 39 37 35 37 39 40 41 47
3 1 5 9 11 13 15 16 18 19 21 21 22 23 23 25 24 21 19 17 19 18 17 16 19 22 22 24 24 23 28 31 36 40 45 48 47 45 45 46 49 52 56
2 1 0 3 7 11 13 17 21 22 22 22 23 22 21 20 18 16 15 14 13 12 10 10 12 14 15 18 19 22 23 24 24 26 28 34 38 39 39 39 41 43 43
5 6 8 9 11 14 17 16 18 19 19 19 20 22 20 18 15 13 12 11 11 13 18 17 20 22 22 23 26 29 27 28 30 29 29 29 30 31 31 33 34 37 39
12 11 11 11 11 12 14 15 16 17 17 18 18 16 15 14 15 13 13 17 23 25 29 31 31 31 34 35 37 39 40 39 39 39 38 38 39 39 39 37 37 38 37
22 21 20 20 19 19 19 20 19 20 20 19 19 20 20 20 20 23 26 31 34 36 37 40 42 45 46 48 49 50 50 50 48 47 46 47 48 49 49 47 47 45 43
24 24 26 26 28 28 28 27 27 28 28 28 28 28 29 31 33 36 40 43 44 45 46 49 49 53 56 57 57 57 57 55 54 54 54 55 55 56 56 55 54 54 52
35 34 36 36 36 37 40 38 38 37 38 39 38 38 42 45 46 46 47 49 51 53 55 59 61 62 63 63 63 62 60 57 56 57 59 59 60 63 61 61 60 59 57
40 41 43 44 44 45 43 43 44 45 46 48 48 47 50 55 56 56 58 59 59 61 62 64 64 63 62 60 57 56 53 50 47 48 51 54 58 61 63 65 64 63 61
45 46 47 48 49 49 50 50 51 53 54 55 56 57 57 60 60 61 61 58 55 51 47 47 45 43 42 41 42 42 42 41 41 44 44 46 49 53 56 60 59 59 59
42 47 49 51 52 54 56 57 58 60 61 62 61 60 58 55 51 48 45 43 42 41 43 44 43 40 40 41 43 45 46 43 41 39 39 38 37 38 43 46 47 49 49
43 43 43 44 44 46 48 50 51 50 50 50 48 46 43 42 42 41 40 41 43 44 44 47 48 48 47 47 47 47 45 43 40 37 35 34 31 30 32 34 35 36 39
51 52 52 51 51 50 50 50 49 48 48 47 46 45 44 44 44 45 45 47 48 47 47 47 47 47 47 46 44 43 42 41 39 36 34 31 29 26 27 27 29 30 31
Wind_Direction_850mb
237 237 237 233 226 229 229 229 226 224 222 220 221 222 223 225 227 230 236 242 246 247 249 251 253 256 258 259 258 256 252 249 250 251 251 255 248 250 260 264 265 265 245
237 235 234 234 235 229 226 225 221 218 216 216 216 218 222 223 226 230 236 242 245 248 251 253 255 257 259 259 260 259 255 254 255 262 262 257 256 255 260 265 266 265 244
234 231 231 230 226 223 221 213 211 211 211 212 215 217 217 220 224 231 236 240 243 248 251 255 257 258 259 261 261 256 254 253 255 259 265 266 266 267 267 268 262 247 241
228 226 226 224 221 217 210 209 204 205 210 213 213 214 216 220 225 231 235 239 243 248 252 255 257 258 258 259 255 253 252 252 253 255 260 265 268 270 270 272 260 246 239
211 211 210 210 205 199 194 194 198 204 207 208 208 209 215 221 226 228 234 239 244 248 251 252 253 256 256 253 250 248 248 251 252 254 258 262 265 270 270 270 255 244 244
174 181 182 180 180 183 187 190 192 195 197 201 207 214 219 223 227 230 232 238 242 244 247 249 249 253 254 251 246 247 247 248 251 254 259 260 265 269 270 251 241 246 252
154 160 166 172 175 179 184 188 193 199 203 207 213 218 223 226 230 233 236 237 240 242 243 245 247 249 250 247 245 243 245 251 254 258 258 260 263 252 242 230 244 252 250
167 175 175 176 181 184 187 192 196 202 207 211 216 221 226 229 232 235 236 240 238 241 243 246 247 248 246 245 245 243 242 241 243 255 266 268 262 237 240 246 251 256 257
175 186 187 188 190 191 196 202 204 204 206 212 218 224 227 227 231 233 236 241 246 247 247 246 246 247 248 246 248 251 252 250 245 246 252 261 262 251 244 248 252 261 268
187 188 187 188 190 193 195 199 205 208 212 215 218 221 224 226 233 237 238 242 243 247 255 253 252 250 246 241 246 254 257 259 262 257 257 257 252 249 250 256 256 262 266
185 195 193 195 197 200 202 201 203 208 208 212 217 220 229 231 234 237 234 239 242 243 246 250 250 246 240 238 239 251 261 271 267 265 257 254 251 251 251 250 253 258 258
178 191 197 198 197 198 200 198 202 209 204 203 211 216 219 218 218 226 225 220 234 240 248 252 248 241 239 233 238 249 261 267 273 267 268 262 260 260 261 259 256 259 262
189 187 190 188 184 185 187 188 196 203 200 199 205 211 213 213 210 212 215 218 221 236 242 239 238 238 234 234 236 241 244 246 251 256 259 261 262 265 260 257 257 256 259
164 179 183 183 187 187 188 193 199 199 194 193 197 195 193 190 192 191 192 197 204 212 226 230 233 236 245 251 247 247 251 251 252 255 257 261 264 263 263 264 264 264 263
31 133 167 181 188 188 188 189 192 193 188 186 187 183 181 178 178 178 179 189 198 212 226 239 241 243 252 258 260 259 258 259 260 260 259 259 259 262 265 267 269 270 268
304 342 123 181 180 184 185 183 184 183 181 174 170 168 169 170 168 164 162 175 185 212 223 236 249 251 251 260 264 264 263 263 264 265 272 266 263 265 269 271 270 265 267
218 210 204 200 189 184 186 181 182 180 174 177 176 176 178 186 190 193 190 206 223 233 258 262 267 266 265 264 267 265 264 263 267 267 269 271 272 270 269 270 268 264 264
227 225 231 228 223 216 205 201 202 201 202 201 201 201 208 211 223 236 249 255 251 251 260 267 269 270 271 270 268 268 268 266 268 268 268 269 268 267 267 267 267 267 266
242 248 241 241 242 241 240 239 236 234 229 227 236 239 241 247 256 264 265 265 267 267 266 269 272 274 274 273 271 271 271 271 271 270 273 273 272 271 271 271 269 268 267
258 252 251 249 249 249 252 254 254 254 252 248 246 250 255 261 265 268 270 270 272 273 271 270 269 269 270 270 269 268 267 268 270 270 268 267 266 266 265 265 265 265 265
262 262 264 265 264 263 261 257 257 258 261 263 262 264 268 270 272 272 273 273 273 273 273 274 272 270 268 267 268 269 270 270 271 272 271 271 269 267 266 264 262 260 260
265 264 264 265 264 266 265 264 263 262 263 264 265 266 268 270 273 273 274 275 275 273 271 269 268 268 267 267 268 268 269 270 270 272 273 273 272 270 267 264 261 259 259
261 258 257 258 260 261 261 261 262 263 264 265 267 268 269 272 274 275 275 274 272 269 266 264 264 263 263 263 263 264 267 272 275 277 280 280 276 272 267 264 261 258 256
272 270 268 266 266 266 266 266 267 267 269 270 271 272 272 272 271 270 269 268 267 266 265 265 266 264 262 261 262 265 268 271 273 279 284 285 283 275 269 267 263 260 257
279 277 275 274 272 271 269 269 270 270 270 270 271 271 270 267 266 265 263 262 261 260 262 265 267 268 267 266 265 266 266 266 270 275 279 281 282 278 272 268 265 260 257
276 276 275 273 272 271 270 270 269 269 268 268 268 267 266 265 264 264 264 265 266 267 267 267 267 267 266 265 263 261 261 261 264 267 267 271 275 277 274 269 264 262 257